• In Russia
  • List of Countries
  • For 7 days
  • Water Temperature
  • Satellite Maps
  • Weather Map
  • Weather Widgets
  • user-avatar
    Login

    Hourly Weather Vitim

    Today, 26 September, Wednesday

    Time Temperature Precipitation Wind Pressure Humidity
    00:00 +8°C° 0 mm 1 mps 718 mmHg 83%
    01:00 +8°C° 0 mm 1 mps 717 mmHg 84%
    02:00 +8°C° 0 mm 1 mps 717 mmHg 85%
    03:00 +7°C° 0 mm 1 mps 717 mmHg 86%
    04:00 +7°C° 0 mm 1 mps 717 mmHg 87%
    05:00 +7°C° 0 mm 1 mps 717 mmHg 87%
    06:00 +8°C° 0 mm 1 mps 717 mmHg 84%
    07:00 +9°C° 0 mm 1 mps 717 mmHg 80%
    08:00 +10°C° 0 mm 1 mps 718 mmHg 75%
    09:00 +12°C° 0 mm 1 mps 717 mmHg 69%
    10:00 +13°C° 0 mm 2 mps 716 mmHg 64%
    11:00 +15°C° 0 mm 2 mps 716 mmHg 59%
    12:00 +16°C° 0 mm 2 mps 715 mmHg 57%
    13:00 +16°C° 0 mm 2 mps 715 mmHg 55%
    14:00 +17°C° 0 mm 3 mps 714 mmHg 53%
    15:00 +16°C° 0 mm 2 mps 714 mmHg 57%
    16:00 +16°C° 0 mm 2 mps 714 mmHg 62%
    17:00 +15°C° 0 mm 2 mps 714 mmHg 66%
    18:00 +14°C° 0 mm 2 mps 714 mmHg 71%
    19:00 +12°C° 0 mm 2 mps 714 mmHg 76%
    20:00 +10°C° 0 mm 2 mps 714 mmHg 81%
    21:00 +10°C° 0 mm 2 mps 713 mmHg 82%
    22:00 +10°C° 0 mm 2 mps 713 mmHg 83%
    23:00 +9°C° 0 mm 2 mps 713 mmHg 84%

    Tomorrow, 27 September, Thursday

    Time Temperature Precipitation Wind Pressure Humidity
    00:00 +9°C° 0 mm 2 mps 713 mmHg 85%
    01:00 +9°C° 0 mm 2 mps 713 mmHg 86%
    02:00 +9°C° 0 mm 2 mps 713 mmHg 86%
    03:00 +8°C° 0.1 mm 2 mps 712 mmHg 87%
    04:00 +8°C° 0.1 mm 2 mps 712 mmHg 88%
    05:00 +8°C° 0.1 mm 2 mps 712 mmHg 89%
    06:00 +9°C° 0.3 mm 2 mps 712 mmHg 87%
    07:00 +9°C° 0.3 mm 2 mps 712 mmHg 85%
    08:00 +10°C° 0.3 mm 2 mps 712 mmHg 84%
    09:00 +10°C° 1.6 mm 2 mps 712 mmHg 85%
    10:00 +10°C° 1.6 mm 2 mps 712 mmHg 87%
    11:00 +9°C° 1.6 mm 2 mps 712 mmHg 88%
    12:00 +9°C° 2.2 mm 2 mps 712 mmHg 89%
    13:00 +8°C° 2.2 mm 2 mps 712 mmHg 90%
    14:00 +8°C° 2.2 mm 2 mps 711 mmHg 91%
    15:00 +8°C° 1.8 mm 2 mps 712 mmHg 91%
    16:00 +7°C° 1.8 mm 2 mps 712 mmHg 92%
    17:00 +8°C° 1.8 mm 1 mps 712 mmHg 93%
    18:00 +8°C° 1.3 mm 1 mps 713 mmHg 93%
    19:00 +7°C° 1.3 mm 2 mps 713 mmHg 93%
    20:00 +7°C° 1.3 mm 2 mps 714 mmHg 93%
    21:00 +6°C° 1.1 mm 2 mps 714 mmHg 93%
    22:00 +6°C° 1.1 mm 2 mps 714 mmHg 93%
    23:00 +6°C° 1.1 mm 2 mps 714 mmHg 93%

    Day after tomorrow, 28 September, Friday

    Time Temperature Precipitation Wind Pressure Humidity
    00:00 +6°C° 0.7 mm 2 mps 714 mmHg 93%
    01:00 +6°C° 0.7 mm 2 mps 714 mmHg 92%
    02:00 +6°C° 0.7 mm 2 mps 714 mmHg 92%
    03:00 +6°C° 0.4 mm 2 mps 714 mmHg 92%
    04:00 +6°C° 0.4 mm 2 mps 714 mmHg 91%
    05:00 +6°C° 0.4 mm 2 mps 714 mmHg 91%
    06:00 +7°C° 0.4 mm 2 mps 715 mmHg 90%
    07:00 +7°C° 0.4 mm 2 mps 715 mmHg 90%
    08:00 +8°C° 0.4 mm 2 mps 716 mmHg 89%
    09:00 +9°C° 0.1 mm 2 mps 716 mmHg 86%
    10:00 +10°C° 0.1 mm 2 mps 717 mmHg 83%
    11:00 +12°C° 0.1 mm 1 mps 717 mmHg 80%
    12:00 +13°C° 0.1 mm 1 mps 718 mmHg 79%
    13:00 +13°C° 0.1 mm 1 mps 718 mmHg 78%
    14:00 +14°C° 0.1 mm 1 mps 718 mmHg 76%
    15:00 +13°C° 0.1 mm 1 mps 719 mmHg 79%
    16:00 +13°C° 0.1 mm 1 mps 719 mmHg 82%
    17:00 +12°C° 0.1 mm 1 mps 720 mmHg 85%
    18:00 +12°C° 0 mm 1 mps 720 mmHg 87%
    19:00 +11°C° 0 mm 1 mps 721 mmHg 88%
    20:00 +10°C° 0 mm 1 mps 721 mmHg 90%
    21:00 +9°C° 0 mm 1 mps 722 mmHg 90%
    22:00 +9°C° 0 mm 1 mps 722 mmHg 90%
    23:00 +9°C° 0 mm 1 mps 722 mmHg 89%

    29 September, Saturday

    Time Temperature Precipitation Wind Pressure Humidity
    00:00 +8°C° 0 mm 1 mps 722 mmHg 89%
    01:00 +8°C° 0 mm 1 mps 722 mmHg 89%
    02:00 +8°C° 0 mm 1 mps 722 mmHg 89%
    03:00 +8°C° 0 mm 1 mps 722 mmHg 89%
    04:00 +8°C° 0 mm 1 mps 722 mmHg 89%
    05:00 +7°C° 0 mm 1 mps 723 mmHg 89%
    06:00 +8°C° 0 mm 1 mps 723 mmHg 87%
    07:00 +9°C° 0 mm 1 mps 723 mmHg 85%
    08:00 +10°C° 0 mm 1 mps 723 mmHg 83%
    09:00 +11°C° 0 mm 1 mps 723 mmHg 79%
    10:00 +13°C° 0 mm 1 mps 723 mmHg 75%
    11:00 +14°C° 0 mm 1 mps 723 mmHg 72%
    12:00 +15°C° 0 mm 1 mps 723 mmHg 70%
    13:00 +15°C° 0 mm 1 mps 722 mmHg 69%
    14:00 +15°C° 0 mm 2 mps 722 mmHg 68%
    15:00 +15°C° 0 mm 2 mps 722 mmHg 70%
    16:00 +14°C° 0 mm 2 mps 722 mmHg 73%
    17:00 +13°C° 0 mm 2 mps 722 mmHg 76%
    18:00 +12°C° 0 mm 2 mps 722 mmHg 80%
    19:00 +9°C° 0 mm 2 mps 722 mmHg 84%
    20:00 +8°C° 0 mm 2 mps 722 mmHg 88%
    21:00 +8°C° 0 mm 2 mps 722 mmHg 88%
    22:00 +7°C° 0 mm 2 mps 722 mmHg 89%
    23:00 +8°C° 0 mm 1 mps 722 mmHg 89%

    30 September, Sunday

    Time Temperature Precipitation Wind Pressure Humidity
    00:00 +8°C° 0 mm 1 mps 722 mmHg 89%
    01:00 +7°C° 0 mm 1 mps 722 mmHg 89%
    02:00 +7°C° 0 mm 1 mps 721 mmHg 88%
    03:00 +7°C° 0 mm 1 mps 721 mmHg 88%
    04:00 +7°C° 0 mm 1 mps 721 mmHg 87%
    05:00 +7°C° 0 mm 1 mps 721 mmHg 87%
    06:00 +7°C° 0 mm 1 mps 721 mmHg 84%
    07:00 +8°C° 0 mm 1 mps 721 mmHg 81%
    08:00 +9°C° 0 mm 1 mps 721 mmHg 79%
    09:00 +11°C° 0 mm 1 mps 721 mmHg 74%
    10:00 +12°C° 0 mm 2 mps 720 mmHg 70%
    11:00 +14°C° 0 mm 2 mps 720 mmHg 66%
    12:00 +14°C° 0 mm 2 mps 720 mmHg 64%
    13:00 +15°C° 0 mm 2 mps 719 mmHg 62%
    14:00 +15°C° 0 mm 2 mps 719 mmHg 61%
    15:00 +15°C° 0 mm 2 mps 719 mmHg 64%
    16:00 +14°C° 0 mm 2 mps 719 mmHg 67%
    17:00 +13°C° 0 mm 2 mps 719 mmHg 70%
    18:00 +12°C° 0 mm 2 mps 719 mmHg 74%
    19:00 +10°C° 0 mm 2 mps 719 mmHg 78%
    20:00 +8°C° 0 mm 2 mps 719 mmHg 82%
    21:00 +9°C° 0 mm 1 mps 718 mmHg 83%
    22:00 +8°C° 0 mm 1 mps 718 mmHg 85%
    23:00 +8°C° 0 mm 1 mps 718 mmHg 86%

    1 October, Monday

    Time Temperature Precipitation Wind Pressure Humidity
    00:00 +8°C° 0 mm 1 mps 718 mmHg 87%
    01:00 +7°C° 0 mm 1 mps 717 mmHg 87%
    02:00 +7°C° 0 mm 1 mps 717 mmHg 88%
    03:00 +7°C° 0.1 mm 1 mps 717 mmHg 88%
    04:00 +7°C° 0.1 mm 1 mps 717 mmHg 88%
    05:00 +7°C° 0.1 mm 1 mps 717 mmHg 88%
    06:00 +6°C° 0.3 mm 2 mps 718 mmHg 88%
    07:00 +7°C° 0.3 mm 2 mps 718 mmHg 87%
    08:00 +7°C° 0.3 mm 2 mps 718 mmHg 86%
    09:00 +8°C° 0.1 mm 3 mps 718 mmHg 80%
    10:00 +8°C° 0.1 mm 3 mps 717 mmHg 74%
    11:00 +9°C° 0.1 mm 3 mps 717 mmHg 68%
    12:00 +9°C° 0 mm 3 mps 717 mmHg 65%
    13:00 +10°C° 0 mm 3 mps 717 mmHg 62%
    14:00 +10°C° 0 mm 3 mps 716 mmHg 59%
    15:00 +10°C° 0 mm 2 mps 716 mmHg 61%
    16:00 +9°C° 0 mm 2 mps 716 mmHg 63%
    17:00 +9°C° 0 mm 2 mps 716 mmHg 64%
    18:00 +8°C° 0 mm 1 mps 716 mmHg 68%
    19:00 +7°C° 0 mm 1 mps 716 mmHg 71%
    20:00 +5°C° 0 mm 1 mps 716 mmHg 75%
    21:00 +5°C° 0 mm 1 mps 715 mmHg 74%
    22:00 +5°C° 0 mm 1 mps 715 mmHg 74%
    23:00 +5°C° 0 mm 1 mps 714 mmHg 74%
    Show more